Location: Adelshofen
(48.1830°N, 11.1165°E)
Time: 15:12:24
(UTC+00:00)

Daily predictions for brighter satellites

Satellite Brightness Start Highest point End
(mag) Time Altitude Azimuth Time Altitude Azimuth Time Altitude Azimuth
FALCON 9 R/B 3.9 19:31:30 10° SW 19:35:16 22° S 19:43:07 10° SE
SPOT 5 2.7 19:39:21 10° SSE 19:43:44 64° ENE 19:48:02 10° N
Cosmos 2221 3.9 19:39:41 10° SSW 19:43:48 43° WNW 19:47:56 10° N
Cosmos 1634 Rocket 4.3 19:39:13 10° NNW 19:45:29 74° W 19:51:39 10° S
Sich 1 3.7 19:43:30 10° N 19:47:40 41° ENE 19:51:48 10° SE
Cosmos 1726 1.8 19:47:56 10° NNW 19:51:03 72° W 19:54:07 10° S
Cosmos 1805 Rocket 4.1 19:47:10 10° N 19:51:25 44° ENE 19:55:39 10° SSE
Cosmos 1980 Rocket 4.5 19:49:46 10° N 19:52:30 13° NNE 19:55:14 10° ENE
Cosmos 1842 Rocket 3.8 19:51:53 10° SSW 19:56:17 75° W 20:00:41 10° N
Cosmos 1733 3.6 19:52:58 10° N 19:56:19 41° ENE 19:59:39 10° SSE
SL-8 R/B 3.7 19:54:01 10° W 19:58:47 86° N 20:03:34 10° E
Ariane Rocket 3.5 19:56:15 10° SE 20:01:05 47° ENE 20:05:58 10° N
Lacrosse 5 rocket 3.6 19:58:17 10° NW 20:01:50 25° N 20:05:18 10° ENE
USA 234 4.2 19:56:12 10° NE 20:02:31 53° NNW 20:08:50 10° W
CZ-4C R/B 3.7 20:09:12 10° N 20:13:06 67° WNW 20:17:07 10° SSW
ERS-1 Rocket 3.0 20:08:29 10° SSE 20:13:30 80° ENE 20:18:33 10° NNW
SPOT 3 Rocket 3.8 20:10:36 11° SSE 20:15:26 57° ENE 20:20:29 10° N
USA 59 Rocket 0.1 20:11:34 10° NW 20:15:27 88° SW 20:20:15 13° SE
Cosmos 614 Rocket 4.2 20:11:13 10° S 20:16:13 50° ESE 20:21:15 10° NNE
Cosmos 1818 3.9 20:12:21 10° S 20:17:27 43° ESE 20:22:36 10° NE
Cosmos 1340 Rocket 2.8 20:13:46 10° S 20:17:43 64° E 20:21:40 10° NNE
Lacrosse 4 Rocket 1.6 20:14:06 10° NNW 20:18:10 59° NE 20:21:37 14° SE
NOSS 2-1 (E) 3.7 20:14:37 10° NW 20:18:31 84° SW 20:23:14 13° SE
Meteor 1-27 Rocket 3.7 20:14:46 10° S 20:20:15 77° E 20:25:51 10° NNE
Resurs 01 Rocket 4.2 20:19:12 10° SW 20:22:09 17° W 20:25:08 10° NW
NOSS 8 (A) 4.4 20:18:32 10° SW 20:22:34 89° NW 20:25:43 10° NE
IRS-1C Rocket 4.4 20:18:06 10° S 20:23:19 65° WSW 20:28:35 10° NNW
Okean O Rocket 4.0 20:21:22 10° SW 20:24:35 19° W 20:27:48 10° NW
Terra 1.8 20:24:14 11° SSE 20:28:43 88° WSW 20:33:28 10° NNW
Cosmos 1833 Rocket 3.8 20:26:09 14° SSE 20:29:36 24° ESE 20:33:59 10° NE
Cosmos 1805 3.3 20:26:22 10° N 20:30:02 55° ENE 20:32:42 17° SSE
NOSS 2-1 (D) 3.9 20:27:48 10° NW 20:31:40 63° SW 20:35:55 15° SSE
Cosmos 1656 3.8 20:27:14 10° NNW 20:32:42 68° ENE 20:37:08 16° SE
Cosmos 1743 Rocket 3.7 20:30:21 10° NNW 20:34:47 74° W 20:38:55 12° S
Helios 1B 4.5 20:36:17 10° NNE 20:40:36 75° ESE 20:44:54 10° S
Okean 1 4.3 20:37:09 10° SSW 20:40:52 45° WNW 20:44:39 10° N
Centaur D AC-29 4.4 20:38:17 10° SSW 20:44:39 24° SSE 21:07:53 10° ESE
DELTA 2 R/B (1) 4.4 20:41:47 10° SW 20:46:34 29° SSE 20:50:45 13° ESE
Cosmos 1151 Rocket 3.0 20:43:28 10° S 20:47:49 86° W 20:52:10 10° N
Landsat 5 3.5 20:44:57 10° NNE 20:48:38 48° E 20:51:04 20° SSE
Cosmos 1428 Rocket 4.4 20:42:46 10° S 20:48:44 71° E 20:54:49 10° NNE
Cosmos 1975 2.7 20:47:20 10° N 20:51:18 74° E 20:53:47 21° SSE
Cosmos 1992 Rocket 4.0 20:49:33 10° NNW 20:54:47 78° WSW 20:58:33 19° SSE
Meteor 1-18 Rocket 4.5 20:52:54 15° S 20:57:45 60° E 21:03:33 10° NNE
MOS 1 Rocket 3.8 20:54:08 15° S 20:58:30 69° WSW 21:03:55 10° NNW
GEOS 3 Rocket 4.3 20:54:10 10° ENE 20:58:44 31° ESE 21:01:25 19° SSE
USA 281 3.3 20:54:10 18° SE 20:59:17 77° ENE 21:05:53 10° NNW
Cosmos 220 Rocket 4.3 20:57:40 10° SSW 21:01:59 69° WNW 21:06:17 10° NNE
NOSS 3-3 (A) 3.7 20:58:02 10° SSW 21:03:28 76° SE 21:09:50 10° NE
ARIANE 5 R/B 3.7 21:02:57 18° ESE 21:05:21 31° ENE 21:09:10 10° N
Cosmos 1092 Rocket 4.0 21:01:47 15° S 21:07:09 76° E 21:13:30 10° NNE
Cosmos 1328 Rocket 3.5 21:05:06 22° S 21:07:50 65° E 21:12:06 10° NNE
Cosmos 1340 4.4 21:07:03 10° NW 21:09:49 23° W 21:12:29 10° SW
Cosmos 2195 Rocket 4.5 21:07:42 12° S 21:13:28 84° W 21:19:38 10° N
BREEZE-M DEB (TANK) 4.2 21:15:40 21° ESE 21:15:40 21° ESE 21:18:15 10° E
Cosmos 1140 Rocket 4.1 21:14:22 24° SSE 21:16:50 38° ESE 21:21:38 10° NE
MetOp-A 3.9 21:14:04 22° S 21:17:08 77° WSW 21:22:14 10° NNW
Cosmos 1515 Rocket 4.1 21:17:02 27° SE 21:18:46 40° E 21:22:49 10° NNE
Cosmos 1626 1.7 21:17:57 29° SSW 21:19:29 82° WNW 21:22:43 10° N
NOSS 3-4 (A) 4.1 21:13:17 10° NW 21:19:59 65° NE 21:26:14 16° ESE
NOSS 3-4 (C) 4.1 21:13:23 10° NW 21:20:04 64° NE 21:26:21 16° ESE
Cosmos 1707 3.7 21:26:10 25° ESE 21:26:49 27° E 21:29:57 10° NNE
Cosmos 1697 Rocket 2.7 21:22:12 10° NNW 21:27:51 76° ENE 21:31:08 26° SE
BREEZE-M DEB (TANK) 2.8 21:18:48 10° WSW 21:28:29 81° SSE 21:31:25 10° ENE
Cosmos 1470 Rocket 3.5 21:25:07 10° N 21:29:35 82° E 21:31:41 31° SSE
Cosmos 1633 Rocket 3.4 21:28:06 10° NNW 21:32:28 60° W 21:34:53 25° SSW
Orbus 7S? 3.3 21:30:57 10° SW 21:36:28 61° SE 21:39:31 10° ENE
NOSS 3-3 (C) 4.0 21:31:45 10° SW 21:37:13 73° NW 21:43:45 10° NE
Cosmos 1980 Rocket 2.9 21:32:28 10° NNW 21:38:00 48° NE 21:41:37 21° ESE
Cosmos 1666 Rocket 4.4 21:34:16 10° NNW 21:38:20 42° W 21:40:51 21° SSW
Lacrosse 5 rocket 2.4 21:36:57 10° NW 21:41:00 43° NNE 21:44:16 14° E
SL-8 R/B 3.6 21:36:29 10° W 21:41:12 66° SSW 21:43:38 28° SE
Cosmos 44 Rocket 3.3 21:38:49 10° NW 21:43:43 68° WSW 21:45:49 33° SSE
Cosmos 1842 3.1 21:44:35 43° SSE 21:45:32 61° E 21:49:10 10° NNE
Cosmos 1674 2.4 21:44:53 47° SSE 21:45:44 71° E 21:49:13 10° NNE
Cosmos 1763 Rocket 4.3 21:44:49 10° NNW 21:49:54 44° ENE 21:52:51 23° ESE
Cosmos 1066 Rocket 4.4 21:46:58 20° SSW 21:51:09 78° WNW 21:57:02 10° N
Meteor 2-12 Rocket 4.4 21:50:05 24° S 21:53:57 87° E 22:00:10 10° N
Cosmos 1933 Rocket 3.5 21:50:08 10° N 21:54:32 78° E 21:56:09 38° SSE
MINOTAUR 4 R/B 3.3 21:52:33 10° NNE 21:55:31 78° ESE 21:55:42 73° SSE
KORONAS-FOTON 3.6 21:55:04 48° S 21:55:59 75° E 21:59:42 10° NNE
Lacrosse 4 Rocket 3.4 21:53:22 10° WNW 21:56:02 17° WSW 21:57:32 14° SW
Cosmos 407 Rocket 3.6 21:56:18 32° S 21:58:34 58° ESE 22:03:42 10° NNE
H-2A R/B 2.5 22:01:54 39° SSE 22:03:22 72° ENE 22:07:39 10° N
USA 59 Rocket 2.5 22:02:38 10° W 22:05:03 14° WSW 22:06:49 12° SW
Cosmos 1607 4.0 21:59:01 10° SW 22:05:30 87° NW 22:12:03 10° NE
Cosmos 2369 4.1 21:59:58 10° NNW 22:05:39 59° ENE 22:08:52 26° SE
Terra 4.3 22:05:29 10° WSW 22:07:01 11° W 22:08:34 10° WNW
Cosmos 1766 4.4 22:04:52 10° NNW 22:08:15 32° W 22:09:34 25° SW
Cosmos 1833 Rocket 3.1 22:07:46 11° SW 22:13:04 61° WNW 22:18:39 10° NNE
ALOS 2 3.1 22:12:16 33° SE 22:13:52 51° ENE 22:18:07 10° N
COSMOS 2406 3.8 22:15:19 32° SSE 22:17:08 41° ESE 22:22:30 10° NE
SL-16 R/B 3.8 22:12:49 10° NNW 22:17:44 29° NE 22:22:36 10° ESE
Cosmos 1758 4.2 22:17:31 10° N 22:21:06 36° ENE 22:22:01 31° ESE
Cosmos 1470 3.2 22:19:16 10° NNW 22:22:49 46° W 22:23:37 39° SW
S3M 4.0 22:19:35 10° N 22:26:02 85° W 22:29:12 32° S
Cosmos 2082 Rocket 2.4 22:23:56 35° S 22:26:10 57° ESE 22:31:46 10° NE
Cosmos 2251 Rocket 3.4 22:24:49 32° SSW 22:27:20 89° ESE 22:32:40 10° NNE
Cosmos 1707 Rocket 4.5 22:28:05 31° ESE 22:29:06 36° E 22:33:10 10° NNE
Cosmos 2360 Rocket 4.4 22:25:26 10° N 22:29:40 21° NE 22:33:52 10° E
DELTA 2 R/B (1) 4.3 22:27:13 10° WSW 22:31:29 33° SSW 22:31:29 33° SSW
Meteor 2-10 Rocket 3.8 22:30:34 10° N 22:36:24 71° ENE 22:38:54 34° SSE
GEOS 3 Rocket 4.1 22:31:52 10° NE 22:36:59 59° NW 22:42:00 10° WSW
SL-08 ROCKET BODY 4.4 22:34:31 32° S 22:37:38 87° W 22:43:50 10° N
Cosmos 1908 3.7 22:35:21 10° NNW 22:38:45 43° W 22:39:14 40° WSW
ARIANE 5 R/B 3.8 22:40:25 25° SW 22:41:44 30° W 22:45:34 10° NNW
Meteor 1-13 Rocket 4.4 22:40:24 30° SSW 22:43:29 73° WNW 22:49:20 10° N
Cosmos 2315 Rocket 4.0 22:40:16 10° N 22:46:37 86° W 22:49:34 34° S
H-2A R/B 2.8 22:44:46 10° NNE 22:48:53 38° E 22:49:42 34° SE
USA 267 4.2 22:44:43 10° ENE 22:50:07 27° SE 22:51:04 26° SE
Cosmos 1346 Rocket 3.1 22:54:21 10° N 22:58:12 56° ENE 22:58:56 47° ESE
Meteor 1-22 Rocket 4.4 22:53:48 10° NNW 22:59:04 59° W 23:01:09 36° SSW
Spot 4 4.5 22:58:19 34° SW 22:59:44 43° W 23:04:18 10° NNW
SL-4 R/B 4.4 23:02:20 12° ESE 23:02:20 12° ESE 23:03:00 10° E
Cosmos 1707 4.5 23:00:27 18° WSW 23:01:49 22° WNW 23:04:45 10° NNW
Cosmos 1733 Rocket 2.9 22:57:45 10° N 23:02:07 86° E 23:03:12 51° SSE
Cosmos 1400 Rocket 2.8 23:02:59 55° SSW 23:03:46 76° WNW 23:07:44 10° N
Cosmos 2278 3.9 22:58:14 10° NNW 23:03:57 69° ENE 23:07:02 28° SE
Cosmos 1300 2.4 23:02:51 10° NNW 23:06:25 74° W 23:06:40 69° SW
SL-24 R/B 4.4 23:02:18 10° NNE 23:07:08 86° ESE 23:09:07 40° SSW
Cosmos 1697 Rocket 4.4 23:07:21 10° WNW 23:11:09 19° W 23:12:51 16° WSW
Cosmos 2322 Rocket 3.2 23:07:20 10° NNW 23:12:43 43° NE 23:17:17 14° ESE
Meteor 1-21 4.2 23:11:02 38° S 23:13:19 80° E 23:19:07 10° NNE
Cosmos 841 Rocket 3.6 23:08:26 10° NNW 23:13:42 70° ENE 23:16:05 33° SE
Okean 1-7 3.5 23:18:10 39° SE 23:19:09 47° E 23:23:19 10° NNE
Lacrosse 5 rocket 1.8 23:15:26 10° WNW 23:19:04 42° WSW 23:19:04 42° WSW
Cosmos 2228 Rocket 3.3 23:19:15 41° SW 23:20:36 62° WNW 23:25:07 10° N
Cosmos 1980 Rocket 3.2 23:16:48 10° NW 23:21:48 32° WSW 23:23:22 27° SW
USA 234 3.9 23:20:51 10° E 23:27:14 57° NNE 23:33:37 10° NW
Cosmos 1356 Rocket 3.4 23:27:09 52° SW 23:28:03 74° WNW 23:32:14 10° N
Cosmos 2333 Rocket 3.3 23:22:51 10° NNW 23:28:17 41° NE 23:33:41 10° ESE
Cosmos 540 Rocket 4.1 23:24:19 10° NW 23:29:09 41° WSW 23:30:28 34° SW
Cosmos 1953 2.5 23:27:25 10° N 23:31:17 59° ENE 23:32:08 46° SE
Genesis I 3.5 23:33:02 43° ESE 23:33:02 43° ESE 23:36:10 10° NE
GP-B 3.8 23:32:51 10° N 23:37:02 43° W 23:38:18 34° WSW
SL-14 R/B 4.1 23:36:11 33° WSW 23:37:03 38° WNW 23:40:38 10° N
Cosmos 1703 Rocket 4.0 23:38:29 39° SE 23:39:44 52° E 23:44:05 10° NNE
Cosmos 1455 2.0 23:39:19 10° N 23:42:47 65° E 23:43:13 57° ESE
Cosmos 1862 Rocket 4.1 23:42:08 37° SW 23:43:23 49° WNW 23:47:39 10° N
Aureole 3 3.4 23:44:34 42° W 23:44:37 43° WNW 23:47:46 10° N
SJ 16-02 2.6 23:45:36 25° SE 23:46:38 28° E 23:50:20 10° NE
RESURS DK-1 3.3 23:44:41 10° NNW 23:48:36 44° NE 23:51:06 20° ESE
ALOS 2 4.4 23:49:40 18° WSW 23:50:29 19° W 23:53:38 10° NW
